Tracking 22124 objects as of 25-Jan-2021
HD Live streaming from Space Station
objects crossing your sky now

STARLINK-1949

Track STARLINK-1949 now!
10-day predictions
STARLINK-1949 is classified as:


NORAD ID: 46777
Int'l Code: 2020-074AQ
Perigee: 550.9 km
Apogee: 557.5 km
Inclination: 53.1 °
Period: 95.6 minutes
Semi major axis: 6925 km
RCS: Unknown
Launch date: October 24, 2020
Source: United States (US)
Launch site: AIR FORCE EASTERN TEST RANGE (AFETR)
aabbcc
Your satellite tracking list
Your tracking list is empty




NASA's NSSDC Master Catalog

Two Line Element Set (TLE):
1 46777U 20074AQ  21025.25001157 -.00015502  00000-0 -10227-2 0  9994
2 46777  53.0565  88.8594 0004773  23.8047  21.3305 15.06436739 14704
Source of the keplerian elements: AFSPC